NBL91 KPDX-KLAX

Flight info

Callsign NBL91
Flight time 2h 3m
Altitude 37000
Route KPDX/10L N0458F370 HRMNS6 HYJOE DCT JAGWA DCT BURGL IRNMN2 KLAX/24R
Aircraft B738/M-SDE2E3FGHIRWXY/LB1

Departure

Time 2026-04-20 01:34
Airport Portland International Airport (KPDX)

Arrival

Time 2026-04-20 03:37
Airport Los Angeles International Airport (KLAX)
Time Latitude Longitude Altitude Speed Heading
2026-04-20 01:16 45.58775 -122.58404 30 ft 0 kts 27°
2026-04-20 01:28 45.58775 -122.58403 32 ft 0 kts 27°
2026-04-20 01:28 45.58778 -122.58401 32 ft 0 kts 27°
2026-04-20 01:28 45.58784 -122.58397 30 ft 3 kts 27°
2026-04-20 01:28 45.58794 -122.58379 32 ft 7 kts 74°
2026-04-20 01:29 45.58803 -122.58302 33 ft 6 kts 64°
2026-04-20 01:29 45.58865 -122.58325 32 ft 17 kts 306°
2026-04-20 01:29 45.58942 -122.58509 31 ft 25 kts 299°
2026-04-20 01:29 45.59023 -122.58717 31 ft 23 kts 299°
2026-04-20 01:30 45.59108 -122.58931 35 ft 27 kts 299°
2026-04-20 01:30 45.59193 -122.59152 36 ft 24 kts 298°
2026-04-20 01:30 45.59283 -122.59383 30 ft 22 kts 299°
2026-04-20 01:30 45.59331 -122.59508 29 ft 14 kts 298°
2026-04-20 01:31 45.59388 -122.59650 26 ft 16 kts 299°
2026-04-20 01:31 45.59409 -122.59788 28 ft 14 kts 241°
2026-04-20 01:31 45.59419 -122.59941 29 ft 19 kts 298°
2026-04-20 01:31 45.59480 -122.60081 30 ft 11 kts 326°
2026-04-20 01:32 45.59503 -122.60091 31 ft 0 kts 353°
2026-04-20 01:32 45.59529 -122.60079 32 ft 12 kts 21°
2026-04-20 01:32 45.59615 -122.59998 32 ft 18 kts 55°
2026-04-20 01:33 45.59616 -122.59912 30 ft 0 kts 114°
2026-04-20 01:33 45.59616 -122.59910 30 ft 1 kts 114°
2026-04-20 01:33 45.59549 -122.59731 30 ft 56 kts 119°
2026-04-20 01:33 45.59225 -122.58903 35 ft 133 kts 119°
2026-04-20 01:34 45.58672 -122.57500 226 ft 181 kts 119°
2026-04-20 01:34 45.58047 -122.55876 1086 ft 190 kts 118°
2026-04-20 01:34 45.57409 -122.54109 1907 ft 208 kts 113°
2026-04-20 01:34 45.57086 -122.51981 2236 ft 233 kts 93°
2026-04-20 01:35 45.56938 -122.49599 2669 ft 245 kts 95°
2026-04-20 01:35 45.56757 -122.47157 3313 ft 249 kts 96°
2026-04-20 01:35 45.56390 -122.44743 4053 ft 247 kts 103°
2026-04-20 01:35 45.55941 -122.42384 4763 ft 246 kts 103°
2026-04-20 01:36 45.55492 -122.40017 5366 ft 249 kts 103°
2026-04-20 01:36 45.55044 -122.37617 6004 ft 251 kts 103°
2026-04-20 01:36 45.54581 -122.35195 6417 ft 265 kts 108°
2026-04-20 01:36 45.53544 -122.32973 7011 ft 275 kts 141°
2026-04-20 01:37 45.51848 -122.31843 8060 ft 270 kts 166°
2026-04-20 01:37 45.50002 -122.31338 8963 ft 270 kts 169°
2026-04-20 01:37 45.48154 -122.30880 9861 ft 269 kts 169°
2026-04-20 01:37 45.46278 -122.30698 10542 ft 277 kts 182°
2026-04-20 01:38 45.44272 -122.30988 10744 ft 302 kts 185°
2026-04-20 01:38 45.42100 -122.31372 10940 ft 326 kts 186°
2026-04-20 01:38 45.39789 -122.31787 11343 ft 341 kts 186°
2026-04-20 01:38 45.37418 -122.32203 12095 ft 344 kts 186°
2026-04-20 01:39 45.35037 -122.32610 12944 ft 345 kts 186°
2026-04-20 01:39 45.32679 -122.33003 13741 ft 346 kts 186°
2026-04-20 01:39 45.30275 -122.33397 14355 ft 350 kts 186°
2026-04-20 01:39 45.27830 -122.33792 14918 ft 356 kts 186°
2026-04-20 01:40 45.25354 -122.34190 15520 ft 360 kts 186°
2026-04-20 01:40 45.22852 -122.34590 16090 ft 365 kts 186°
2026-04-20 01:40 45.20313 -122.34996 16676 ft 369 kts 186°
2026-04-20 01:40 45.17746 -122.35406 17255 ft 373 kts 186°
2026-04-20 01:41 45.15157 -122.35818 17838 ft 376 kts 187°
2026-04-20 01:41 45.12541 -122.36235 18430 ft 379 kts 187°
2026-04-20 01:41 45.09911 -122.36653 18989 ft 381 kts 187°
2026-04-20 01:41 45.07285 -122.37070 19566 ft 382 kts 186°
2026-04-20 01:42 45.04661 -122.37488 20037 ft 386 kts 186°
2026-04-20 01:42 45.01945 -122.37919 20493 ft 390 kts 186°
2026-04-20 01:42 44.99268 -122.38343 20968 ft 393 kts 186°
2026-04-20 01:42 44.96533 -122.38763 21447 ft 396 kts 185°
2026-04-20 01:43 44.93780 -122.38552 21887 ft 401 kts 168°
2026-04-20 01:43 44.91094 -122.37396 22353 ft 405 kts 163°
2026-04-20 01:43 44.88414 -122.36110 22801 ft 408 kts 162°
2026-04-20 01:43 44.85721 -122.34809 23213 ft 412 kts 162°
2026-04-20 01:44 44.82996 -122.33501 23628 ft 415 kts 163°
2026-04-20 01:44 44.80255 -122.32198 24024 ft 417 kts 163°
2026-04-20 01:44 44.77503 -122.30907 24382 ft 419 kts 163°
2026-04-20 01:44 44.74737 -122.29610 24828 ft 418 kts 163°
2026-04-20 01:45 44.71968 -122.28312 25194 ft 420 kts 163°
2026-04-20 01:45 44.69191 -122.27055 25586 ft 420 kts 164°
2026-04-20 01:45 44.66404 -122.25767 25965 ft 422 kts 163°
2026-04-20 01:45 44.63621 -122.24462 26375 ft 422 kts 163°
2026-04-20 01:46 44.60833 -122.23164 26769 ft 422 kts 163°
2026-04-20 01:46 44.58035 -122.21866 27091 ft 424 kts 164°
2026-04-20 01:46 44.55234 -122.20572 27447 ft 425 kts 164°
2026-04-20 01:46 44.52417 -122.19264 27729 ft 428 kts 164°
2026-04-20 01:47 44.49574 -122.17951 27970 ft 431 kts 164°
2026-04-20 01:47 44.46731 -122.16646 28403 ft 431 kts 164°
2026-04-20 01:47 44.43877 -122.15335 28708 ft 432 kts 164°
2026-04-20 01:47 44.41009 -122.14017 28955 ft 434 kts 164°
2026-04-20 01:48 44.38131 -122.12706 29287 ft 434 kts 164°
2026-04-20 01:48 44.35273 -122.11390 29843 ft 430 kts 164°
2026-04-20 01:48 44.32455 -122.10092 30306 ft 426 kts 164°
2026-04-20 01:48 44.29632 -122.08795 30568 ft 427 kts 165°
2026-04-20 01:49 44.26810 -122.07503 30828 ft 428 kts 165°
2026-04-20 01:49 44.23975 -122.06211 31145 ft 427 kts 165°
2026-04-20 01:49 44.21152 -122.04921 31520 ft 426 kts 165°
2026-04-20 01:49 44.18337 -122.03636 31836 ft 425 kts 165°
2026-04-20 01:50 44.15561 -122.02371 32109 ft 425 kts 165°
2026-04-20 01:50 44.12708 -122.01075 32424 ft 425 kts 165°
2026-04-20 01:50 44.09945 -121.99820 32741 ft 424 kts 165°
2026-04-20 01:50 44.07144 -121.98548 33079 ft 422 kts 165°
2026-04-20 01:51 44.04366 -121.97287 33405 ft 420 kts 165°
2026-04-20 01:51 44.01576 -121.96025 33595 ft 422 kts 165°
2026-04-20 01:51 43.98782 -121.94758 33846 ft 422 kts 165°
2026-04-20 01:51 43.95991 -121.93492 34083 ft 421 kts 165°
2026-04-20 01:52 43.93207 -121.92233 34353 ft 420 kts 165°
2026-04-20 01:52 43.90430 -121.90978 34588 ft 419 kts 165°
2026-04-20 01:52 43.87661 -121.89730 34804 ft 419 kts 165°
2026-04-20 01:52 43.84874 -121.88536 35016 ft 417 kts 169°
2026-04-20 01:53 43.82042 -121.87761 35244 ft 415 kts 173°
2026-04-20 01:53 43.80146 -121.87356 35385 ft 414 kts 174°
2026-04-20 01:53 43.77296 -121.86812 35586 ft 414 kts 175°
2026-04-20 01:53 43.74428 -121.86283 35783 ft 414 kts 175°
2026-04-20 01:54 43.71580 -121.85746 35976 ft 414 kts 175°
2026-04-20 01:54 43.68721 -121.85188 36145 ft 415 kts 174°
2026-04-20 01:54 43.65859 -121.84613 36318 ft 415 kts 174°
2026-04-20 01:54 43.63011 -121.84029 36572 ft 414 kts 174°
2026-04-20 01:55 43.60166 -121.83436 36864 ft 411 kts 174°
2026-04-20 01:55 43.57323 -121.82842 36867 ft 415 kts 174°
2026-04-20 01:55 43.51649 -121.81652 36886 ft 414 kts 174°
2026-04-20 01:56 43.45980 -121.80463 36882 ft 410 kts 174°
2026-04-20 01:56 43.40345 -121.79285 36880 ft 408 kts 174°
2026-04-20 01:57 43.34750 -121.78118 36866 ft 407 kts 174°
2026-04-20 01:57 43.29109 -121.76947 36897 ft 413 kts 174°
2026-04-20 01:58 43.23382 -121.75759 36882 ft 417 kts 174°
2026-04-20 01:58 43.17625 -121.74565 36885 ft 417 kts 174°
2026-04-20 01:59 43.11933 -121.73383 36877 ft 410 kts 174°
2026-04-20 01:59 43.06303 -121.72220 36879 ft 409 kts 174°
2026-04-20 02:00 43.00692 -121.71063 36882 ft 407 kts 175°
2026-04-20 02:00 42.95118 -121.69917 36868 ft 407 kts 175°
2026-04-20 02:01 42.89512 -121.68766 36883 ft 408 kts 175°
2026-04-20 02:01 42.83881 -121.67613 36879 ft 409 kts 175°
2026-04-20 02:02 42.78226 -121.66458 36874 ft 412 kts 174°
2026-04-20 02:02 42.72558 -121.65299 36880 ft 413 kts 175°
2026-04-20 02:03 42.66864 -121.64137 36882 ft 414 kts 175°
2026-04-20 02:03 42.61194 -121.62983 36885 ft 415 kts 175°
2026-04-20 02:04 42.55487 -121.61823 36867 ft 415 kts 175°
2026-04-20 02:04 42.49765 -121.60663 36876 ft 415 kts 175°
2026-04-20 02:05 42.44047 -121.59505 36882 ft 416 kts 175°
2026-04-20 02:05 42.38311 -121.58348 36877 ft 417 kts 175°
2026-04-20 02:06 42.32580 -121.57191 36883 ft 416 kts 175°
2026-04-20 02:06 42.26850 -121.56038 36871 ft 416 kts 175°
2026-04-20 02:07 42.21144 -121.54891 36869 ft 416 kts 175°
2026-04-20 02:07 42.15428 -121.53744 36914 ft 415 kts 175°
2026-04-20 02:08 42.09721 -121.52602 36916 ft 414 kts 175°
2026-04-20 02:08 42.04016 -121.51462 36905 ft 414 kts 175°
2026-04-20 02:09 41.98326 -121.50327 36891 ft 413 kts 175°
2026-04-20 02:09 41.92641 -121.49195 36887 ft 412 kts 175°
2026-04-20 02:10 41.86981 -121.48070 36892 ft 411 kts 175°
2026-04-20 02:10 41.81336 -121.46950 36861 ft 410 kts 175°
2026-04-20 02:11 41.75698 -121.45834 36891 ft 409 kts 175°
2026-04-20 02:11 41.70075 -121.44723 36908 ft 409 kts 175°
2026-04-20 02:12 41.64447 -121.43613 36908 ft 409 kts 175°
2026-04-20 02:12 41.58784 -121.42498 36919 ft 413 kts 176°
2026-04-20 02:13 41.53091 -121.41381 36926 ft 419 kts 176°
2026-04-20 02:13 41.47268 -121.40239 36926 ft 422 kts 175°
2026-04-20 02:14 41.41486 -121.39105 36912 ft 423 kts 176°
2026-04-20 02:14 41.35659 -121.37964 36919 ft 423 kts 176°
2026-04-20 02:15 41.29823 -121.36824 36915 ft 423 kts 176°
2026-04-20 02:15 41.24001 -121.35689 36890 ft 423 kts 176°
2026-04-20 02:16 41.18175 -121.34555 36886 ft 423 kts 176°
2026-04-20 02:16 41.12363 -121.33427 36902 ft 422 kts 176°
2026-04-20 02:17 41.06556 -121.32302 36866 ft 422 kts 176°
2026-04-20 02:17 41.00747 -121.31178 36879 ft 421 kts 176°
2026-04-20 02:18 40.94981 -121.30064 36903 ft 421 kts 176°
2026-04-20 02:18 40.89188 -121.28948 36903 ft 421 kts 176°
2026-04-20 02:19 40.83394 -121.27833 36905 ft 421 kts 176°
2026-04-20 02:19 40.77598 -121.26719 36911 ft 420 kts 176°
2026-04-20 02:20 40.71813 -121.25610 36919 ft 419 kts 176°
2026-04-20 02:20 40.66048 -121.24506 36917 ft 418 kts 176°
2026-04-20 02:21 40.57450 -121.22864 36929 ft 418 kts 176°
2026-04-20 02:22 40.51698 -121.21768 36914 ft 418 kts 177°
2026-04-20 02:22 40.45923 -121.20670 36935 ft 419 kts 177°
2026-04-20 02:23 40.40135 -121.19571 36938 ft 421 kts 177°
2026-04-20 02:23 40.34309 -121.18467 36940 ft 423 kts 177°
2026-04-20 02:24 40.28467 -121.17362 36929 ft 425 kts 177°
2026-04-20 02:24 40.22597 -121.16252 36933 ft 426 kts 177°
2026-04-20 02:25 40.16727 -121.15144 36930 ft 427 kts 177°
2026-04-20 02:25 40.10845 -121.14036 36933 ft 426 kts 177°
2026-04-20 02:26 40.05016 -121.12940 36932 ft 426 kts 177°
2026-04-20 02:26 39.99154 -121.11840 36907 ft 425 kts 177°
2026-04-20 02:27 39.93311 -121.10745 36925 ft 424 kts 177°
2026-04-20 02:27 39.87471 -121.09653 36925 ft 423 kts 177°
2026-04-20 02:28 39.81654 -121.08567 36928 ft 422 kts 177°
2026-04-20 02:28 39.75834 -121.07483 36918 ft 422 kts 177°
2026-04-20 02:29 39.70028 -121.06404 36943 ft 422 kts 177°
2026-04-20 02:29 39.64200 -121.05322 36929 ft 423 kts 177°
2026-04-20 02:30 39.58365 -121.04241 36928 ft 424 kts 177°
2026-04-20 02:30 39.52541 -121.03163 36926 ft 426 kts 177°
2026-04-20 02:31 39.46664 -121.02078 36921 ft 428 kts 177°
2026-04-20 02:31 39.40764 -121.00989 36913 ft 429 kts 177°
2026-04-20 02:32 39.34832 -120.99897 36947 ft 431 kts 177°
2026-04-20 02:32 39.28890 -120.98805 36958 ft 432 kts 177°
2026-04-20 02:33 39.22935 -120.97712 36946 ft 433 kts 177°
2026-04-20 02:33 39.16973 -120.96619 36953 ft 433 kts 177°
2026-04-20 02:34 39.10994 -120.95526 36939 ft 434 kts 177°
2026-04-20 02:34 39.05025 -120.94436 36904 ft 433 kts 177°
2026-04-20 02:35 38.99048 -120.93346 36916 ft 433 kts 177°
2026-04-20 02:35 38.93109 -120.92266 36929 ft 434 kts 177°
2026-04-20 02:36 38.87137 -120.91181 36920 ft 434 kts 177°
2026-04-20 02:36 38.81163 -120.90098 36950 ft 434 kts 177°
2026-04-20 02:37 38.75187 -120.89016 36960 ft 434 kts 177°
2026-04-20 02:37 38.69186 -120.87932 36954 ft 435 kts 177°
2026-04-20 02:38 38.63198 -120.86852 36899 ft 435 kts 178°
2026-04-20 02:38 38.57197 -120.85771 36905 ft 436 kts 178°
2026-04-20 02:39 38.51187 -120.84691 36914 ft 437 kts 178°
2026-04-20 02:39 38.45161 -120.83609 36913 ft 437 kts 178°
2026-04-20 02:40 38.39135 -120.82529 36919 ft 438 kts 178°
2026-04-20 02:40 38.33093 -120.81448 36910 ft 438 kts 178°
2026-04-20 02:41 38.28070 -120.80551 36910 ft 438 kts 178°
2026-04-20 02:41 38.21047 -120.79299 36907 ft 439 kts 178°
2026-04-20 02:42 38.15004 -120.78223 36901 ft 439 kts 178°
2026-04-20 02:42 38.09935 -120.77322 36905 ft 439 kts 178°
2026-04-20 02:43 38.03923 -120.76255 36903 ft 438 kts 178°
2026-04-20 02:43 37.97883 -120.75185 36899 ft 438 kts 178°
2026-04-20 02:44 37.91845 -120.74117 36852 ft 438 kts 178°
2026-04-20 02:44 37.85796 -120.73049 36862 ft 438 kts 178°
2026-04-20 02:45 37.79758 -120.71985 36859 ft 437 kts 178°
2026-04-20 02:45 37.73739 -120.70925 36851 ft 437 kts 178°
2026-04-20 02:46 37.67727 -120.69869 36848 ft 436 kts 178°
2026-04-20 02:46 37.61689 -120.68810 36859 ft 437 kts 178°
2026-04-20 02:47 37.55698 -120.67762 36854 ft 438 kts 178°
2026-04-20 02:47 37.49673 -120.66708 36848 ft 439 kts 178°
2026-04-20 02:48 37.43607 -120.65649 36860 ft 440 kts 178°
2026-04-20 02:48 37.37529 -120.64589 36866 ft 442 kts 178°
2026-04-20 02:49 37.31425 -120.63411 36854 ft 447 kts 173°
2026-04-20 02:49 37.25365 -120.61485 36859 ft 450 kts 171°
2026-04-20 02:50 37.19315 -120.59422 36870 ft 451 kts 171°
2026-04-20 02:50 37.13249 -120.57399 36858 ft 451 kts 171°
2026-04-20 02:51 37.07166 -120.55416 36871 ft 451 kts 171°
2026-04-20 02:51 37.01125 -120.53464 36878 ft 451 kts 171°
2026-04-20 02:52 36.95048 -120.51506 36864 ft 450 kts 171°
2026-04-20 02:52 36.88987 -120.49555 36876 ft 450 kts 171°
2026-04-20 02:53 36.82919 -120.47604 36891 ft 450 kts 171°
2026-04-20 02:53 36.76863 -120.45660 36888 ft 450 kts 171°
2026-04-20 02:54 36.70805 -120.43718 36888 ft 450 kts 172°
2026-04-20 02:54 36.64735 -120.41776 36894 ft 450 kts 172°
2026-04-20 02:55 36.58670 -120.39839 36904 ft 450 kts 172°
2026-04-20 02:55 36.52596 -120.37903 36910 ft 451 kts 171°
2026-04-20 02:56 36.46498 -120.35960 36902 ft 452 kts 171°
2026-04-20 02:56 36.40437 -120.34033 36907 ft 453 kts 171°
2026-04-20 02:57 36.34323 -120.32092 36904 ft 454 kts 171°
2026-04-20 02:57 36.28193 -120.30149 36920 ft 454 kts 171°
2026-04-20 02:58 36.22064 -120.28210 36907 ft 455 kts 171°
2026-04-20 02:58 36.15919 -120.26269 36893 ft 455 kts 171°
2026-04-20 02:59 36.09780 -120.24333 36911 ft 456 kts 171°
2026-04-20 02:59 36.03629 -120.22396 36924 ft 456 kts 171°
2026-04-20 03:00 35.97484 -120.20464 36917 ft 456 kts 172°
2026-04-20 03:00 35.91371 -120.18545 36931 ft 456 kts 172°
2026-04-20 03:01 35.85216 -120.16617 36922 ft 456 kts 172°
2026-04-20 03:01 35.79067 -120.14693 36928 ft 456 kts 172°
2026-04-20 03:02 35.72917 -120.12771 36941 ft 456 kts 171°
2026-04-20 03:02 35.66762 -120.10792 36929 ft 460 kts 166°
2026-04-20 03:02 35.63870 -120.08986 36975 ft 469 kts 153°
2026-04-20 03:03 35.61117 -120.06840 36940 ft 470 kts 153°
2026-04-20 03:03 35.55589 -120.02528 36919 ft 470 kts 153°
2026-04-20 03:04 35.50024 -119.98288 36938 ft 471 kts 153°
2026-04-20 03:04 35.44424 -119.94077 36920 ft 472 kts 153°
2026-04-20 03:05 35.38806 -119.89864 36604 ft 478 kts 153°
2026-04-20 03:05 35.35956 -119.87726 36091 ft 479 kts 153°
2026-04-20 03:05 35.33120 -119.85597 35468 ft 478 kts 153°
2026-04-20 03:05 35.30318 -119.83498 34831 ft 479 kts 153°
2026-04-20 03:06 35.27499 -119.81320 34154 ft 481 kts 149°
2026-04-20 03:06 35.24771 -119.78897 33399 ft 485 kts 146°
2026-04-20 03:06 35.22112 -119.76356 32652 ft 486 kts 144°
2026-04-20 03:06 35.19467 -119.73779 31901 ft 486 kts 144°
2026-04-20 03:07 35.16817 -119.71215 31232 ft 485 kts 145°
2026-04-20 03:07 35.14174 -119.68693 30746 ft 478 kts 145°
2026-04-20 03:07 35.11553 -119.66226 30225 ft 474 kts 145°
2026-04-20 03:07 35.08948 -119.63795 29671 ft 469 kts 146°
2026-04-20 03:08 35.06368 -119.61398 29125 ft 463 kts 146°
2026-04-20 03:08 35.03820 -119.59034 28585 ft 457 kts 146°
2026-04-20 03:08 35.01302 -119.56697 28065 ft 451 kts 146°
2026-04-20 03:08 34.98816 -119.54391 27558 ft 447 kts 146°
2026-04-20 03:09 34.96352 -119.52106 27043 ft 442 kts 145°
2026-04-20 03:09 34.93912 -119.49845 26541 ft 438 kts 145°
2026-04-20 03:09 34.91495 -119.47606 26046 ft 434 kts 145°
2026-04-20 03:09 34.89102 -119.45427 25754 ft 425 kts 146°
2026-04-20 03:10 34.86761 -119.43335 25292 ft 421 kts 146°
2026-04-20 03:10 34.84407 -119.41242 24842 ft 417 kts 147°
2026-04-20 03:10 34.82067 -119.39160 24367 ft 415 kts 146°
2026-04-20 03:10 34.79749 -119.37092 23883 ft 413 kts 146°
2026-04-20 03:11 34.77444 -119.35034 23547 ft 406 kts 146°
2026-04-20 03:11 34.75194 -119.33026 23301 ft 397 kts 146°
2026-04-20 03:11 34.72974 -119.31062 22863 ft 393 kts 147°
2026-04-20 03:11 34.70769 -119.29137 22451 ft 388 kts 147°
2026-04-20 03:12 34.68580 -119.27232 22001 ft 385 kts 147°
2026-04-20 03:12 34.66411 -119.25341 21552 ft 382 kts 147°
2026-04-20 03:12 34.64261 -119.23467 21153 ft 378 kts 147°
2026-04-20 03:12 34.62128 -119.21625 20734 ft 375 kts 147°
2026-04-20 03:13 34.60003 -119.19797 20309 ft 373 kts 147°
2026-04-20 03:13 34.57895 -119.17983 20021 ft 368 kts 147°
2026-04-20 03:13 34.55842 -119.16210 19985 ft 357 kts 147°
2026-04-20 03:13 34.53865 -119.14466 19978 ft 345 kts 147°
2026-04-20 03:14 34.51962 -119.12773 19965 ft 333 kts 147°
2026-04-20 03:14 34.50132 -119.11144 19970 ft 320 kts 147°
2026-04-20 03:14 34.48372 -119.09583 19965 ft 307 kts 147°
2026-04-20 03:14 34.46677 -119.08083 19882 ft 298 kts 147°
2026-04-20 03:15 34.44973 -119.06580 19297 ft 308 kts 147°
2026-04-20 03:15 34.43178 -119.05010 18319 ft 331 kts 147°
2026-04-20 03:15 34.41266 -119.03358 17503 ft 346 kts 147°
2026-04-20 03:15 34.39294 -119.01650 16994 ft 349 kts 147°
2026-04-20 03:16 34.37315 -118.99936 16539 ft 350 kts 147°
2026-04-20 03:16 34.35342 -118.98228 16097 ft 347 kts 147°
2026-04-20 03:16 34.33389 -118.96521 15682 ft 345 kts 146°
2026-04-20 03:16 34.31474 -118.94784 15296 ft 342 kts 145°
2026-04-20 03:17 34.29585 -118.93056 14900 ft 340 kts 145°
2026-04-20 03:17 34.27701 -118.91340 14501 ft 337 kts 145°
2026-04-20 03:17 34.25833 -118.89644 14121 ft 335 kts 145°
2026-04-20 03:17 34.23983 -118.87955 13738 ft 332 kts 145°
2026-04-20 03:18 34.22149 -118.86267 13318 ft 330 kts 145°
2026-04-20 03:18 34.20344 -118.84605 13127 ft 321 kts 145°
2026-04-20 03:18 34.18601 -118.83003 13046 ft 309 kts 145°
2026-04-20 03:18 34.16919 -118.81458 12950 ft 299 kts 145°
2026-04-20 03:19 34.15330 -118.79888 12767 ft 293 kts 141°
2026-04-20 03:19 34.13822 -118.78244 12462 ft 291 kts 140°
2026-04-20 03:19 34.12332 -118.76592 12102 ft 291 kts 140°
2026-04-20 03:19 34.10842 -118.74945 11787 ft 290 kts 140°
2026-04-20 03:20 34.09357 -118.73315 11494 ft 288 kts 140°
2026-04-20 03:20 34.07878 -118.71702 11201 ft 286 kts 140°
2026-04-20 03:20 34.06414 -118.70112 11016 ft 279 kts 140°
2026-04-20 03:20 34.05004 -118.68548 10836 ft 273 kts 139°
2026-04-20 03:21 34.03634 -118.66972 10560 ft 273 kts 131°
2026-04-20 03:21 34.02819 -118.64900 10282 ft 278 kts 106°
2026-04-20 03:21 34.02532 -118.62627 10048 ft 277 kts 99°
2026-04-20 03:21 34.02342 -118.60311 9735 ft 278 kts 99°
2026-04-20 03:22 34.02149 -118.57999 9430 ft 277 kts 99°
2026-04-20 03:22 34.01946 -118.55701 9174 ft 274 kts 99°
2026-04-20 03:22 34.01742 -118.53431 8966 ft 270 kts 99°
2026-04-20 03:22 34.01538 -118.51222 8861 ft 261 kts 100°
2026-04-20 03:23 34.01338 -118.49079 8756 ft 253 kts 100°
2026-04-20 03:23 34.01143 -118.47005 8669 ft 245 kts 100°
2026-04-20 03:23 34.01075 -118.44984 8551 ft 241 kts 85°
2026-04-20 03:23 34.01433 -118.43061 8517 ft 228 kts 81°
2026-04-20 03:24 34.01772 -118.41244 8365 ft 218 kts 82°
2026-04-20 03:24 34.02084 -118.39483 8106 ft 211 kts 82°
2026-04-20 03:24 34.02381 -118.37785 7890 ft 203 kts 83°
2026-04-20 03:24 34.02665 -118.36146 7613 ft 198 kts 83°
2026-04-20 03:25 34.02880 -118.34498 7160 ft 201 kts 87°
2026-04-20 03:25 34.03046 -118.32811 6696 ft 205 kts 87°
2026-04-20 03:25 34.03215 -118.31087 6225 ft 209 kts 86°
2026-04-20 03:25 34.03378 -118.29330 5724 ft 212 kts 88°
2026-04-20 03:26 34.03504 -118.27554 5230 ft 214 kts 88°
2026-04-20 03:26 34.03630 -118.25766 4750 ft 215 kts 88°
2026-04-20 03:26 34.03759 -118.23966 4235 ft 216 kts 88°
2026-04-20 03:26 34.03913 -118.22154 3748 ft 217 kts 86°
2026-04-20 03:27 34.04075 -118.20340 3261 ft 218 kts 85°
2026-04-20 03:27 34.04189 -118.19131 2926 ft 219 kts 84°
2026-04-20 03:27 34.04453 -118.16740 2577 ft 206 kts 82°
2026-04-20 03:27 34.04592 -118.15638 2521 ft 195 kts 83°
2026-04-20 03:28 34.04784 -118.14090 2502 ft 181 kts 83°
2026-04-20 03:28 34.04947 -118.12601 2514 ft 178 kts 83°
2026-04-20 03:28 34.05290 -118.09626 2526 ft 180 kts 80°
2026-04-20 03:29 34.05349 -118.08127 2519 ft 180 kts 103°
2026-04-20 03:29 34.04717 -118.06886 2523 ft 176 kts 146°
2026-04-20 03:29 34.03569 -118.06490 2538 ft 177 kts 189°
2026-04-20 03:29 34.02491 -118.07135 2527 ft 177 kts 226°
2026-04-20 03:30 34.01751 -118.08313 2531 ft 177 kts 233°
2026-04-20 03:30 34.01048 -118.09529 2521 ft 175 kts 234°
2026-04-20 03:30 34.00367 -118.10720 2519 ft 176 kts 234°
2026-04-20 03:30 33.99672 -118.11937 2527 ft 176 kts 234°
2026-04-20 03:31 33.98978 -118.13148 2503 ft 175 kts 234°
2026-04-20 03:31 33.98307 -118.14317 2493 ft 162 kts 234°
2026-04-20 03:31 33.97767 -118.15447 2519 ft 159 kts 252°
2026-04-20 03:31 33.97645 -118.16750 2535 ft 155 kts 262°
2026-04-20 03:32 33.97510 -118.18014 2529 ft 152 kts 261°
2026-04-20 03:32 33.97371 -118.19284 2537 ft 153 kts 261°
2026-04-20 03:32 33.97235 -118.20558 2528 ft 153 kts 261°
2026-04-20 03:32 33.97102 -118.21832 2527 ft 153 kts 261°
2026-04-20 03:33 33.96969 -118.23102 2532 ft 153 kts 262°
2026-04-20 03:33 33.96838 -118.24374 2539 ft 153 kts 261°
2026-04-20 03:33 33.96706 -118.25650 2471 ft 154 kts 261°
2026-04-20 03:33 33.96575 -118.26923 2282 ft 151 kts 261°
2026-04-20 03:34 33.96446 -118.28159 2079 ft 146 kts 262°
2026-04-20 03:34 33.96323 -118.29359 1891 ft 143 kts 262°
2026-04-20 03:34 33.96202 -118.30537 1694 ft 143 kts 262°
2026-04-20 03:34 33.96078 -118.31733 1520 ft 143 kts 263°
2026-04-20 03:35 33.95956 -118.32912 1344 ft 141 kts 262°
2026-04-20 03:35 33.95833 -118.34094 1149 ft 142 kts 263°
2026-04-20 03:35 33.95713 -118.35273 958 ft 141 kts 263°
2026-04-20 03:35 33.95594 -118.36427 773 ft 136 kts 263°
2026-04-20 03:36 33.95481 -118.37541 591 ft 131 kts 263°
2026-04-20 03:36 33.95369 -118.38628 439 ft 132 kts 262°
2026-04-20 03:36 33.95255 -118.39726 238 ft 133 kts 263°
2026-04-20 03:36 33.95145 -118.40785 126 ft 118 kts 262°
2026-04-20 03:37 33.95066 -118.41590 125 ft 51 kts 263°
2026-04-20 03:37 33.95014 -118.41797 121 ft 21 kts 235°
2026-04-20 03:37 33.94943 -118.41919 122 ft 17 kts 233°
2026-04-20 03:37 33.94874 -118.42028 123 ft 16 kts 233°
2026-04-20 03:38 33.94808 -118.42134 123 ft 14 kts 233°
2026-04-20 03:38 33.94760 -118.42211 122 ft 6 kts 231°
2026-04-20 03:38 33.94743 -118.42236 122 ft 3 kts 232°
2026-04-20 03:38 33.94734 -118.42249 120 ft 2 kts 233°
2026-04-20 03:39 33.94724 -118.42266 122 ft 3 kts 233°
2026-04-20 03:39 33.94707 -118.42293 125 ft 5 kts 233°
2026-04-20 03:39 33.94670 -118.42380 125 ft 21 kts 258°
2026-04-20 03:39 33.94651 -118.42540 125 ft 19 kts 263°
2026-04-20 03:40 33.94639 -118.42660 125 ft 10 kts 265°
2026-04-20 03:40 33.94633 -118.42727 125 ft 3 kts 259°
2026-04-20 03:40 33.94623 -118.42841 125 ft 15 kts 265°
2026-04-20 03:40 33.94607 -118.42997 125 ft 21 kts 263°
2026-04-20 03:41 33.94580 -118.43108 124 ft 14 kts 203°